AIQ3005 VTBD-VTSP

Flight info

Callsign AIQ3005
Flight time N/A
Altitude 36000
Route SABIS3C SABIS Y8 SAVSA SAVSA1D
Aircraft A320/M-SDE3FGHIRWY/LB1

Departure

Time 2026-05-07 14:54
Airport Don Mueang International Airport (VTBD)

Arrival

Time N/A
Airport Phuket International Airport (VTSP)
Time Latitude Longitude Altitude Speed Heading
2026-05-07 14:40 13.91344 100.60082 17 ft 0 kts 28°
2026-05-07 14:43 13.91338 100.60078 17 ft 2 kts 28°
2026-05-07 14:43 13.91320 100.60068 37 ft 3 kts 27°
2026-05-07 14:43 13.91302 100.60059 21 ft 3 kts 23°
2026-05-07 14:43 13.91283 100.60052 21 ft 3 kts 12°
2026-05-07 14:44 13.91264 100.60050 20 ft 3 kts 339°
2026-05-07 14:44 13.91254 100.60057 19 ft 2 kts 298°
2026-05-07 14:44 13.91245 100.60073 17 ft 3 kts 298°
2026-05-07 14:44 13.91235 100.60092 20 ft 3 kts 298°
2026-05-07 14:45 13.91225 100.60110 17 ft 3 kts 298°
2026-05-07 14:45 13.91216 100.60128 20 ft 3 kts 298°
2026-05-07 14:45 13.91210 100.60140 19 ft 1 kts 298°
2026-05-07 14:45 13.91201 100.60154 19 ft 3 kts 326°
2026-05-07 14:46 13.91192 100.60157 19 ft 2 kts 28°
2026-05-07 14:46 13.91181 100.60152 20 ft 3 kts 29°
2026-05-07 14:46 13.91164 100.60142 20 ft 3 kts 28°
2026-05-07 14:46 13.91152 100.60135 18 ft 0 kts 28°
2026-05-07 14:48 13.91170 100.60145 17 ft 9 kts 28°
2026-05-07 14:49 13.91282 100.60208 17 ft 24 kts 28°
2026-05-07 14:49 13.91404 100.60277 17 ft 15 kts 37°
2026-05-07 14:49 13.91422 100.60367 18 ft 14 kts 52°
2026-05-07 14:49 13.91500 100.60414 17 ft 13 kts 28°
2026-05-07 14:50 13.91589 100.60465 18 ft 15 kts 29°
2026-05-07 14:50 13.91681 100.60516 17 ft 15 kts 28°
2026-05-07 14:50 13.91784 100.60573 17 ft 20 kts 28°
2026-05-07 14:50 13.91920 100.60650 18 ft 24 kts 29°
2026-05-07 14:51 13.92069 100.60734 19 ft 26 kts 28°
2026-05-07 14:51 13.92233 100.60825 18 ft 27 kts 28°
2026-05-07 14:51 13.92366 100.60901 18 ft 22 kts 27°
2026-05-07 14:51 13.92509 100.60980 17 ft 24 kts 28°
2026-05-07 14:52 13.92634 100.61052 20 ft 17 kts 36°
2026-05-07 14:52 13.92611 100.61165 16 ft 19 kts 119°
2026-05-07 14:52 13.92556 100.61268 17 ft 15 kts 119°
2026-05-07 14:52 13.92501 100.61370 18 ft 17 kts 119°
2026-05-07 14:53 13.92441 100.61482 16 ft 16 kts 118°
2026-05-07 14:53 13.92387 100.61515 14 ft 4 kts 200°
2026-05-07 14:53 13.92380 100.61512 14 ft 0 kts 207°
2026-05-07 14:53 13.92306 100.61472 15 ft 43 kts 208°
2026-05-07 14:54 13.91808 100.61192 18 ft 116 kts 208°
2026-05-07 14:54 13.90929 100.60698 106 ft 162 kts 206°
2026-05-07 14:54 13.89937 100.60132 827 ft 163 kts 208°
2026-05-07 14:54 13.88934 100.59573 1534 ft 168 kts 207°
2026-05-07 14:55 13.88031 100.58725 1858 ft 194 kts 244°
2026-05-07 14:55 13.87950 100.57283 2226 ft 223 kts 285°
2026-05-07 14:55 13.88524 100.55704 2674 ft 248 kts 290°
2026-05-07 14:55 13.89183 100.54015 3200 ft 268 kts 291°
2026-05-07 14:56 13.89649 100.52827 3755 ft 272 kts 291°
2026-05-07 14:56 13.90362 100.51003 4690 ft 275 kts 292°
2026-05-07 14:56 13.91314 100.48547 5852 ft 282 kts 291°
2026-05-07 14:56 13.91805 100.47267 6433 ft 286 kts 291°
2026-05-07 14:57 13.92528 100.45367 7240 ft 290 kts 291°
2026-05-07 14:57 13.93267 100.43412 8095 ft 294 kts 291°
2026-05-07 14:57 13.94014 100.41429 8930 ft 299 kts 291°
2026-05-07 14:57 13.94760 100.39442 9771 ft 303 kts 291°
2026-05-07 14:58 13.95543 100.37356 10308 ft 318 kts 291°
2026-05-07 14:58 13.96066 100.35066 10611 ft 339 kts 271°
2026-05-07 14:58 13.95682 100.32658 11189 ft 347 kts 248°
2026-05-07 14:58 13.94402 100.30578 11873 ft 349 kts 224°
2026-05-07 14:59 13.92403 100.29189 12577 ft 349 kts 201°
2026-05-07 14:59 13.90140 100.28267 13317 ft 352 kts 199°
2026-05-07 14:59 13.87844 100.27362 14004 ft 355 kts 199°
2026-05-07 14:59 13.85550 100.26466 14617 ft 358 kts 199°
2026-05-07 15:00 13.83210 100.25547 15224 ft 362 kts 199°
2026-05-07 15:00 13.80847 100.24609 15830 ft 365 kts 199°
2026-05-07 15:00 13.78469 100.23660 16423 ft 369 kts 199°
2026-05-07 15:00 13.76091 100.22708 17012 ft 372 kts 199°
2026-05-07 15:01 13.73648 100.21729 17601 ft 376 kts 199°
2026-05-07 15:01 13.71188 100.20744 18176 ft 380 kts 199°
2026-05-07 15:01 13.68738 100.19764 18660 ft 384 kts 200°
2026-05-07 15:01 13.66237 100.18765 19153 ft 387 kts 200°
2026-05-07 15:02 13.63702 100.17757 19653 ft 390 kts 199°
2026-05-07 15:02 13.61187 100.16759 20138 ft 393 kts 199°
2026-05-07 15:02 13.58620 100.15738 20625 ft 396 kts 199°
2026-05-07 15:02 13.56039 100.14710 21102 ft 400 kts 199°
2026-05-07 15:03 13.53421 100.13666 21576 ft 403 kts 199°
2026-05-07 15:03 13.50788 100.12616 22039 ft 406 kts 199°
2026-05-07 15:03 13.48174 100.11572 22496 ft 409 kts 199°
2026-05-07 15:03 13.45513 100.10512 22953 ft 412 kts 199°
2026-05-07 15:04 13.42827 100.09443 23410 ft 415 kts 199°
2026-05-07 15:04 13.40117 100.08365 23787 ft 418 kts 199°
2026-05-07 15:04 13.37388 100.07277 24158 ft 421 kts 199°
2026-05-07 15:04 13.34679 100.06196 24526 ft 423 kts 199°
2026-05-07 15:05 13.31925 100.05097 24894 ft 425 kts 199°
2026-05-07 15:05 13.29155 100.03992 25262 ft 428 kts 199°
2026-05-07 15:05 13.26359 100.02877 25618 ft 431 kts 199°
2026-05-07 15:05 13.23546 100.01759 25978 ft 433 kts 199°
2026-05-07 15:06 13.20722 100.00641 26337 ft 435 kts 199°
2026-05-07 15:06 13.17921 99.99534 26690 ft 438 kts 199°
2026-05-07 15:06 13.15064 99.98401 27040 ft 440 kts 200°
2026-05-07 15:06 13.12184 99.97256 27385 ft 443 kts 200°
2026-05-07 15:07 13.09339 99.96124 27709 ft 445 kts 200°
2026-05-07 15:07 13.06433 99.94970 28045 ft 448 kts 200°
2026-05-07 15:07 13.03520 99.93813 28371 ft 450 kts 200°
2026-05-07 15:07 13.00575 99.92647 28697 ft 452 kts 200°
2026-05-07 15:08 12.97666 99.91494 29020 ft 455 kts 200°
2026-05-07 15:08 12.94698 99.90319 29352 ft 457 kts 200°
2026-05-07 15:08 12.91721 99.89143 29703 ft 458 kts 200°
2026-05-07 15:08 12.88743 99.87966 30033 ft 460 kts 200°
2026-05-07 15:09 12.85745 99.86780 30307 ft 462 kts 200°
2026-05-07 15:09 12.82737 99.85588 30583 ft 464 kts 200°
2026-05-07 15:09 12.79756 99.84405 30843 ft 466 kts 200°
2026-05-07 15:09 12.76728 99.83205 31105 ft 467 kts 200°
2026-05-07 15:10 12.73679 99.81996 31354 ft 469 kts 200°
2026-05-07 15:10 12.70622 99.80784 31623 ft 470 kts 200°
2026-05-07 15:10 12.67577 99.79577 31993 ft 469 kts 200°
2026-05-07 15:10 12.64562 99.78386 32373 ft 468 kts 200°
2026-05-07 15:11 12.61521 99.77196 32754 ft 467 kts 198°
2026-05-07 15:11 12.58389 99.76356 33131 ft 465 kts 188°
2026-05-07 15:11 12.55190 99.76047 33599 ft 460 kts 180°
2026-05-07 15:11 12.51987 99.76057 34032 ft 457 kts 179°
2026-05-07 15:12 12.48812 99.76065 34382 ft 455 kts 179°
2026-05-07 15:12 12.45641 99.76066 34690 ft 455 kts 179°
2026-05-07 15:12 12.42472 99.76063 34986 ft 454 kts 180°
2026-05-07 15:12 12.39353 99.76058 35281 ft 453 kts 180°
2026-05-07 15:13 12.36191 99.76058 35564 ft 453 kts 179°
2026-05-07 15:13 12.33044 99.76063 35824 ft 453 kts 179°
2026-05-07 15:13 12.26785 99.76075 35907 ft 445 kts 179°
2026-05-07 15:14 12.20642 99.76078 35907 ft 443 kts 179°
2026-05-07 15:14 12.14466 99.76077 35907 ft 443 kts 179°
2026-05-07 15:15 12.08275 99.76083 35906 ft 444 kts 179°
2026-05-07 15:15 12.02138 99.76094 35908 ft 444 kts 179°
2026-05-07 15:16 11.95946 99.76103 35911 ft 444 kts 179°
2026-05-07 15:16 11.89761 99.76110 35909 ft 444 kts 179°
2026-05-07 15:17 11.83564 99.76116 35909 ft 445 kts 179°
2026-05-07 15:17 11.77391 99.76118 35905 ft 446 kts 179°
2026-05-07 15:18 11.71173 99.76117 35900 ft 446 kts 179°
2026-05-07 15:18 11.64991 99.76121 35901 ft 446 kts 179°
2026-05-07 15:19 11.58776 99.76133 35906 ft 447 kts 179°
2026-05-07 15:19 11.52552 99.76146 35908 ft 447 kts 179°
2026-05-07 15:20 11.46324 99.76158 35906 ft 447 kts 179°
2026-05-07 15:20 11.40135 99.76163 35904 ft 447 kts 179°
2026-05-07 15:21 11.33891 99.76163 35905 ft 447 kts 179°
2026-05-07 15:21 11.27702 99.76170 35905 ft 447 kts 179°
2026-05-07 15:22 11.21476 99.76178 35905 ft 446 kts 179°
2026-05-07 15:22 11.15252 99.76101 35906 ft 447 kts 185°
2026-05-07 15:23 11.09245 99.74637 35898 ft 448 kts 197°
2026-05-07 15:23 11.03280 99.72747 35895 ft 448 kts 197°
2026-05-07 15:24 10.97307 99.70883 35891 ft 448 kts 196°
2026-05-07 15:24 10.91369 99.69032 35892 ft 448 kts 196°
2026-05-07 15:25 10.85398 99.67168 35897 ft 449 kts 197°
2026-05-07 15:25 10.79424 99.65302 35897 ft 449 kts 197°
2026-05-07 15:26 10.73458 99.63427 35905 ft 448 kts 197°
2026-05-07 15:26 10.67500 99.61561 35913 ft 447 kts 196°
2026-05-07 15:27 10.61579 99.59716 35912 ft 447 kts 196°
2026-05-07 15:27 10.55628 99.57855 35906 ft 446 kts 197°
2026-05-07 15:28 10.49728 99.56002 35903 ft 446 kts 196°
2026-05-07 15:28 10.43787 99.54148 35903 ft 446 kts 196°
2026-05-07 15:29 10.37842 99.52300 35906 ft 445 kts 196°
2026-05-07 15:29 10.31909 99.50452 35906 ft 445 kts 196°
2026-05-07 15:30 10.26024 99.48616 35906 ft 445 kts 196°
2026-05-07 15:30 10.20095 99.46766 35914 ft 445 kts 196°
2026-05-07 15:31 10.14182 99.44922 35915 ft 444 kts 196°
2026-05-07 15:31 10.08305 99.43092 35900 ft 443 kts 196°
2026-05-07 15:32 10.02393 99.41257 35897 ft 443 kts 196°
2026-05-07 15:32 9.96484 99.39418 35893 ft 443 kts 196°
2026-05-07 15:33 9.90618 99.37593 35895 ft 443 kts 196°
2026-05-07 15:33 9.84700 99.35755 35889 ft 443 kts 196°
2026-05-07 15:34 9.78794 99.33918 35779 ft 445 kts 196°
2026-05-07 15:34 9.75872 99.33012 35546 ft 444 kts 196°
2026-05-07 15:34 9.72913 99.32093 35317 ft 444 kts 196°
2026-05-07 15:35 9.69962 99.31174 34947 ft 441 kts 196°
2026-05-07 15:35 9.67024 99.30259 34395 ft 440 kts 195°
2026-05-07 15:35 9.64093 99.29349 33838 ft 439 kts 195°
2026-05-07 15:35 9.61171 99.28443 33257 ft 437 kts 195°
2026-05-07 15:36 9.58271 99.27542 32725 ft 435 kts 195°
2026-05-07 15:36 9.55421 99.26656 32195 ft 433 kts 195°
2026-05-07 15:36 9.52513 99.25752 31649 ft 431 kts 195°
2026-05-07 15:36 9.49690 99.24876 31144 ft 429 kts 195°
2026-05-07 15:37 9.46836 99.23991 30628 ft 426 kts 195°
2026-05-07 15:37 9.44008 99.23113 30132 ft 424 kts 195°
2026-05-07 15:37 9.41191 99.22236 29583 ft 422 kts 195°
2026-05-07 15:37 9.38430 99.21375 29102 ft 417 kts 195°
2026-05-07 15:38 9.35674 99.20518 28639 ft 412 kts 195°
2026-05-07 15:38 9.32937 99.19669 28175 ft 408 kts 195°
2026-05-07 15:38 9.30234 99.18832 27714 ft 404 kts 195°
2026-05-07 15:38 9.27554 99.18004 27254 ft 400 kts 195°
2026-05-07 15:39 9.24897 99.17184 26795 ft 396 kts 194°
2026-05-07 15:39 9.22259 99.16367 26325 ft 394 kts 195°
2026-05-07 15:39 9.19677 99.15565 25865 ft 391 kts 194°
2026-05-07 15:39 9.17068 99.14756 25375 ft 390 kts 194°
2026-05-07 15:40 9.14475 99.13914 24894 ft 390 kts 199°
2026-05-07 15:40 9.12056 99.12666 24387 ft 392 kts 211°
2026-05-07 15:40 9.09884 99.10974 23879 ft 393 kts 217°
2026-05-07 15:40 9.07788 99.09243 23345 ft 394 kts 217°
2026-05-07 15:41 9.05659 99.07494 22777 ft 393 kts 217°
2026-05-07 15:41 9.03540 99.05758 22279 ft 391 kts 217°
2026-05-07 15:41 9.01433 99.04035 21774 ft 389 kts 217°
2026-05-07 15:41 8.99330 99.02315 21282 ft 387 kts 217°
2026-05-07 15:42 8.97238 99.00604 20778 ft 385 kts 217°
2026-05-07 15:42 8.95158 98.98901 20295 ft 384 kts 217°
2026-05-07 15:42 8.93085 98.97204 19796 ft 383 kts 217°
2026-05-07 15:42 8.91017 98.95512 19430 ft 378 kts 217°
2026-05-07 15:43 8.89666 98.94407 19150 ft 375 kts 217°
2026-05-07 15:43 8.87007 98.92231 18303 ft 365 kts 217°
2026-05-07 15:43 8.85045 98.90626 17810 ft 361 kts 217°
2026-05-07 15:43 8.83096 98.89032 17361 ft 359 kts 217°
2026-05-07 15:44 8.81160 98.87446 16912 ft 357 kts 217°
2026-05-07 15:44 8.79883 98.86402 16636 ft 356 kts 217°
2026-05-07 15:44 8.77962 98.84834 16200 ft 354 kts 217°
2026-05-07 15:44 8.76044 98.83273 15779 ft 352 kts 217°
2026-05-07 15:45 8.73517 98.81218 15226 ft 350 kts 217°
2026-05-07 15:45 8.72259 98.80196 14951 ft 349 kts 217°
2026-05-07 15:45 8.70345 98.78643 14534 ft 348 kts 217°
2026-05-07 15:45 8.68488 98.77135 14122 ft 347 kts 217°
2026-05-07 15:46 8.64747 98.74093 13380 ft 342 kts 217°
2026-05-07 15:46 8.62898 98.72587 12931 ft 340 kts 217°
2026-05-07 15:46 8.61053 98.71085 12445 ft 341 kts 217°
2026-05-07 15:47 8.59233 98.69604 12005 ft 330 kts 217°
2026-05-07 15:47 8.57481 98.68177 11598 ft 316 kts 217°
2026-05-07 15:47 8.55799 98.66806 11196 ft 304 kts 217°
2026-05-07 15:47 8.54183 98.65489 10816 ft 293 kts 217°
2026-05-07 15:48 8.52645 98.64238 10495 ft 281 kts 217°
2026-05-07 15:48 8.51146 98.62987 10181 ft 279 kts 222°
2026-05-07 15:48 8.49888 98.61472 9916 ft 284 kts 236°
2026-05-07 15:48 8.48854 98.59691 9793 ft 299 kts 238°
2026-05-07 15:49 8.47816 98.57886 9630 ft 301 kts 238°
2026-05-07 15:49 8.46764 98.56059 9463 ft 300 kts 238°
2026-05-07 15:49 8.45714 98.54235 9305 ft 300 kts 238°
2026-05-07 15:49 8.44667 98.52419 9150 ft 299 kts 238°
2026-05-07 15:50 8.43624 98.50609 8989 ft 297 kts 238°
2026-05-07 15:50 8.42581 98.48801 8825 ft 297 kts 238°
2026-05-07 15:50 8.41546 98.47001 8667 ft 296 kts 238°
2026-05-07 15:50 8.40513 98.45205 8509 ft 295 kts 238°
2026-05-07 15:51 8.39480 98.43411 8356 ft 294 kts 238°
2026-05-07 15:51 8.38454 98.41623 8177 ft 293 kts 238°
2026-05-07 15:51 8.37434 98.39846 8045 ft 292 kts 238°
2026-05-07 15:51 8.36426 98.38095 7887 ft 291 kts 238°
2026-05-07 15:52 8.35404 98.36325 7733 ft 291 kts 238°
2026-05-07 15:52 8.34382 98.34561 7579 ft 289 kts 238°
2026-05-07 15:52 8.33368 98.32808 7420 ft 289 kts 238°
2026-05-07 15:52 8.32356 98.31055 7273 ft 288 kts 238°
2026-05-07 15:53 8.31350 98.29310 7120 ft 287 kts 238°
2026-05-07 15:53 8.30357 98.27586 6974 ft 287 kts 238°
2026-05-07 15:53 8.29354 98.25840 6816 ft 286 kts 238°
2026-05-07 15:53 8.28355 98.24103 6665 ft 285 kts 238°
2026-05-07 15:54 8.27355 98.22370 6503 ft 284 kts 238°
2026-05-07 15:54 8.26372 98.20669 6362 ft 283 kts 238°
2026-05-07 15:54 8.25382 98.18952 6210 ft 282 kts 238°
2026-05-07 15:54 8.24401 98.17251 6058 ft 281 kts 238°
2026-05-07 15:55 8.23418 98.15545 5906 ft 280 kts 238°
2026-05-07 15:55 8.22448 98.13867 5757 ft 280 kts 238°
2026-05-07 15:55 8.21467 98.12168 5609 ft 279 kts 238°
2026-05-07 15:55 8.20491 98.10477 5447 ft 278 kts 239°
2026-05-07 15:56 8.19734 98.08678 5308 ft 279 kts 254°
2026-05-07 15:56 8.19395 98.06743 5145 ft 279 kts 261°
2026-05-07 15:56 8.19115 98.04842 5004 ft 267 kts 260°
2026-05-07 15:56 8.18661 98.03074 4785 ft 255 kts 239°
2026-05-07 15:57 8.17515 98.01790 4735 ft 250 kts 211°
2026-05-07 15:57 8.15891 98.01218 4579 ft 247 kts 182°
2026-05-07 15:57 8.14177 98.01324 4405 ft 247 kts 174°
2026-05-07 15:57 8.12511 98.01489 4279 ft 237 kts 174°
2026-05-07 15:58 8.10912 98.01649 4165 ft 225 kts 172°
2026-05-07 15:58 8.09514 98.02201 4066 ft 213 kts 138°
2026-05-07 15:58 8.08760 98.03428 3927 ft 205 kts 102°
2026-05-07 15:58 8.08772 98.04830 3735 ft 195 kts 85°
2026-05-07 15:59 8.08910 98.06167 3557 ft 187 kts 85°
2026-05-07 15:59 8.09037 98.07434 3389 ft 180 kts 85°
2026-05-07 15:59 8.09160 98.08672 3238 ft 173 kts 85°
2026-05-07 15:59 8.09277 98.09854 3081 ft 166 kts 86°
2026-05-07 16:00 8.09386 98.10984 2949 ft 156 kts 85°
2026-05-07 16:00 8.09486 98.12052 2828 ft 149 kts 85°
2026-05-07 16:00 8.09582 98.13074 2718 ft 147 kts 85°
2026-05-07 16:00 8.09675 98.14094 2608 ft 145 kts 85°
2026-05-07 16:01 8.09770 98.15116 2494 ft 146 kts 85°
2026-05-07 16:01 8.09864 98.16129 2383 ft 143 kts 85°
2026-05-07 16:01 8.09953 98.17110 2274 ft 138 kts 85°
2026-05-07 16:01 8.10040 98.18067 2159 ft 138 kts 85°
2026-05-07 16:02 8.10130 98.19031 2052 ft 137 kts 85°
2026-05-07 16:02 8.10219 98.19989 1940 ft 136 kts 85°
2026-05-07 16:02 8.10306 98.20937 1835 ft 136 kts 84°
2026-05-07 16:02 8.10394 98.21887 1730 ft 136 kts 84°
2026-05-07 16:03 8.10483 98.22837 1557 ft 135 kts 84°
2026-05-07 16:03 8.10572 98.23783 1371 ft 135 kts 84°
2026-05-07 16:03 8.10658 98.24710 1194 ft 134 kts 84°
2026-05-07 16:03 8.10745 98.25645 1012 ft 133 kts 84°
2026-05-07 16:04 8.10833 98.26570 847 ft 133 kts 84°
2026-05-07 16:04 8.10921 98.27500 676 ft 132 kts 84°
2026-05-07 16:04 8.11007 98.28397 491 ft 133 kts 83°
2026-05-07 16:04 8.11105 98.29327 325 ft 133 kts 84°
2026-05-07 16:05 8.11187 98.30247 117 ft 132 kts 82°